CHINASAT 5B (SINOSAT 1)

导读

CHINASAT 5B(原名为鑫诺一号SINOSAT 1),是中国于1998年7月18日成功发射的通信卫星,后于2010年被卫通接管并更名。该卫星配备24个C频段转发器与14个Ku频段转发器,定点于东经110.5°轨道,曾为2004雅典奥运会提供电视转播服务,2011年退役后由中星10号接替,目前处于失控漂移状态。

Basic Information
目录编号:
25404
目录名称:
CHINASAT 5B (SINOSAT 1)
国际标识:
1998-044A
轨道中心:
EARTH
卫星名称:
CHINASAT 5B (SINOSAT 1)
卫星全名:
--
卫星状态:
在轨 (已飞行10223 天)
发射日期:
1998-07-18 UTC
国别 :
中国 (CN)
星等 :
--
Orbit Information
数据来源 国际轨道数据
星历时间: 2026-07-13T19:31:36+0800
19小时前
查看轨道信息
半长轴: 42468.266km
偏心率: 0.0003497
轨道倾角: 11.015°
近地点辐角 233.318°
升交点赤经 45.030°
平近点角 138.408°
近地点: 36075.277km
远地点: 36104.981km
周期: 1451.632分钟
每日圈数: 0.991987
Detailed Information
使用方式:
暂无
2D Orbit Map
3D Orbit Map
Orbit Altitude Analysis Chart
Orbit Inclination Analysis Chart
Orbit Comprehensive Analysis Chart
View Comprehensive Chart